BEIDOU-3 G3

Last updated on Fri Dec 19 2025 00:02:53 GMT+0000 (Coordinated Universal Time)

1 45807U 20040A 25352.66213948 -.00000330 00000+0 00000+0 0 9991 2 45807 2.0051 66.6361 0006414 309.2378 60.5993 1.00271392 20266
UTC large
Height (km)
Speed (km/s)
/
Latitude / Longitude
Inclination (degrees)
Orbital Period (minutes)
Azimuth
Elevation
Range (km)
Doppler Factor

Next 0 passes for location: London (51.5072 / 0.1276)

Sorry there are no passes over London.